Location: *
(49.0404°S, 178.0580°W)
Time: 16:39:19
(UTC+00:00)

Daily predictions for brighter satellites

Satellite Brightness Start Highest point End
(mag) Time Altitude Azimuth Time Altitude Azimuth Time Altitude Azimuth
USA 59 Rocket 3.1 15:05:19 27° ENE 15:05:19 27° ENE 15:08:07 10° NE
ATLAS 2AS CENTAUR R/B 4.3 15:53:33 24° S 15:53:33 24° S 15:58:06 10° SE
SL-16 R/B 4.2 15:54:14 10° SSE 15:56:31 24° SSE 15:56:31 24° SSE
Cosmos 1697 Rocket 4.3 16:16:52 25° SSE 16:18:19 28° SE 16:23:11 10° ENE
Cosmos 2034 Rocket 4.4 16:29:11 20° S 16:33:39 60° ESE 16:39:45 10° NNE
Cosmos 1980 Rocket 4.2 16:35:50 16° S 16:38:27 22° SE 16:42:47 10° E
SMAP 3.9 16:37:43 10° NE 16:42:15 48° ESE 16:43:02 43° SE
SL-4 R/B 3.4 16:44:42 38° ENE 16:44:42 38° ENE 16:47:41 10° ESE
USA 215 3.2 16:38:20 10° NE 16:44:52 67° NW 16:45:12 66° WNW
DMSP B5D2-2 4.1 16:41:43 10° SSE 16:47:04 81° ENE 16:47:13 80° NE
BREEZE-M DEB (TANK) 3.0 16:47:39 77° ESE 16:47:39 77° ESE 16:56:42 10° E
USA 59 Rocket 2.3 16:51:56 35° NW 16:51:56 35° NW 16:56:39 10° N
Cosmos 1833 Rocket 4.5 16:47:21 10° NNE 16:52:15 31° ENE 16:57:12 10° SE
NOSS 3-4 (C) 3.8 16:51:30 44° SSW 16:53:50 71° SE 17:00:10 10° NE
NOSS 3-4 (A) 3.8 16:51:40 45° SSW 16:53:58 72° SE 17:00:16 10° NE
Cosmos 614 Rocket 4.5 16:49:54 15° N 16:53:59 58° ENE 16:59:02 10° SSE
Cosmos 1072 Rocket 4.5 16:56:25 64° WNW 16:56:25 64° WNW 17:02:25 10° N
Cosmos 1607 4.2 17:00:10 15° NNW 17:05:12 64° ENE 17:11:15 10° SE
Aureole 3 Rocket 2.9 17:10:43 78° NE 17:10:43 78° NE 17:14:09 10° N
Meteor 1-14 Rocket 4.1 17:08:10 25° S 17:11:34 87° ESE 17:17:12 10° N
Cosmos 2360 4.2 17:09:54 39° SSW 17:12:11 79° ESE 17:17:55 10° NNE
Cosmos 1464 Rocket 4.1 17:11:27 50° WSW 17:12:22 54° W 17:18:34 10° NNW
Cosmos 1656 3.6 17:13:48 59° WSW 17:14:30 66° WNW 17:19:58 10° NNE
Meteor 1-31 Rocket 3.8 17:12:47 10° NE 17:16:24 43° ESE 17:18:21 24° SSE
Cosmos 1766 Rocket 4.1 17:17:56 45° NNW 17:17:56 45° NNW 17:21:07 10° N
CORIOLIS 4.0 17:19:32 10° N 17:24:57 75° WNW 17:28:26 23° SSW
Tsikada Rocket 4.0 17:20:39 10° N 17:26:54 85° E 17:33:11 10° S
Cosmos 1992 Rocket 3.9 17:25:19 43° SW 17:27:01 72° WNW 17:32:15 10° NNE
Meteor 2-16 Rocket 4.4 17:23:35 10° NNW 17:29:40 59° WSW 17:35:48 10° S
Tiangong 0.3 17:35:26 15° N 17:35:26 15° N 17:36:58 10° NNE
Molniya-1 4.4 17:35:36 44° SSE 17:35:57 48° SE 17:41:12 10° ENE
IGS 5A 4.4 17:32:18 10° NE 17:36:15 46° ESE 17:40:15 10° S
Cosmos 1726 3.6 17:40:08 20° NNW 17:40:08 20° NNW 17:41:17 10° N
Cosmos 1634 Rocket 4.0 17:32:29 10° S 17:38:56 88° W 17:45:19 10° N
SL-16 R/B 4.0 17:38:53 10° S 17:41:36 19° SSW 17:41:36 19° SSW
ATLAS 2AS CENTAUR R/B 4.1 17:40:59 17° SSW 17:45:21 30° SSE 17:51:45 10° ESE
Cosmos 1536 2.6 17:44:36 26° SSW 17:46:46 83° W 17:50:39 10° N
ADEOS Rocket 3.0 17:41:34 10° NNE 17:47:10 71° ESE 17:52:44 10° S
Okean 1 3.6 17:43:32 10° N 17:47:19 66° E 17:51:11 10° SSE
SL-16 R/B 4.2 17:44:37 10° S 17:48:51 20° SE 17:53:03 10° E
AQUARIUS 4.2 17:44:41 10° N 17:49:06 55° W 17:51:32 25° SSW
CZ-2C R/B 2.6 17:45:54 10° N 17:49:41 74° WNW 17:51:39 27° SSW
CZ-4B R/B 3.9 17:49:16 10° N 17:53:29 77° WNW 17:57:09 14° SSW
Cosmos 2082 Rocket 4.4 17:49:01 10° NNE 17:53:45 28° ENE 17:58:31 10° SE
SAR-Lupe-2 4.2 17:54:03 10° NNE 17:57:36 55° ESE 18:01:12 10° S
Cosmos 2369 4.5 17:53:55 11° SSW 17:59:16 50° SE 18:04:48 10° NE
Resurs 01 Rocket 4.4 17:58:15 10° E 18:00:09 13° SE 18:02:02 10° SSE
Radarsat Rocket 4.4 17:54:46 10° NNE 18:01:58 82° ESE 18:08:24 10° SSW
Cosmos 1697 Rocket 2.7 17:58:37 19° SW 18:02:46 67° WNW 18:08:24 10° NNE
Sich 1 3.1 17:58:37 10° S 18:02:59 80° E 18:07:20 10° NNE
Cosmos 2333 Rocket 4.5 17:59:53 10° S 18:03:12 15° SSE 18:06:31 10° ESE
Cosmos 1500 Rocket 3.5 17:58:50 10° S 18:03:22 87° WNW 18:07:47 10° N
Cosmos 1626 4.4 18:08:12 10° NE 18:10:49 23° E 18:13:29 10° SE
Cosmos 1340 2.7 18:09:29 27° SW 18:10:55 44° W 18:14:11 10° N
JB-3 4.5 18:08:50 10° S 18:12:37 48° WSW 18:16:24 10° NW
Cosmos 1340 Rocket 2.7 18:09:03 10° NNW 18:12:58 67° WSW 18:17:00 10° S
YAOGAN 1 2.9 18:13:09 10° NNE 18:17:27 67° ESE 18:21:49 10° S
Meteor 1-10 Rocket 4.4 18:11:36 10° NNW 18:17:31 61° WSW 18:23:30 10° S
SMAP 4.2 18:16:05 10° NW 18:19:50 23° W 18:21:30 19° WSW
Cosmos 1805 Rocket 3.5 18:16:33 10° SSW 18:20:57 69° W 18:25:17 10° N
SL-4 R/B 2.0 18:19:28 19° W 18:22:24 69° SSW 18:26:27 10° ESE
Cosmos 1980 Rocket 2.2 18:17:36 10° SSW 18:23:15 90° SSE 18:28:55 10° NNE
Helios 1B rocket 2.9 18:23:43 10° NNW 18:27:26 38° W 18:30:56 11° SSW
Cosmos 2322 Rocket 4.0 18:23:23 10° S 18:27:57 24° SE 18:32:27 10° E
Meteor 1-11 Rocket 4.0 18:24:46 10° SSW 18:30:04 43° W 18:35:17 10° NNW
COSMO-SKYMED 1 2.6 18:27:22 10° S 18:31:45 62° WSW 18:36:05 10° NNW
Cosmos 1733 3.5 18:29:22 11° SSW 18:32:33 38° W 18:35:53 10° NNW
Cosmos 1666 Rocket 4.3 18:28:19 10° S 18:32:48 57° ESE 18:37:10 10° NNE
Cosmos 1975 3.0 18:29:33 10° S 18:33:31 73° E 18:37:27 10° NNE
Meteor 2-4 Rocket 4.3 18:29:11 10° N 18:34:33 60° E 18:40:08 10° SSE
Cosmos 1833 Rocket 2.9 18:30:26 10° NW 18:35:57 51° SW 18:41:31 10° SSE
Nadezhda 4 Rocket 4.2 18:31:26 10° N 18:37:35 76° E 18:43:47 10° SSE
Cosmos 2279 Rocket 4.2 18:31:36 10° SSW 18:37:39 50° W 18:43:37 10° NNW
SPOT 1/Viking Rocket 4.5 18:35:53 10° NE 18:40:57 51° ESE 18:46:04 10° S
Cosmos 1269 Rocket 4.5 18:38:29 10° NW 18:43:28 39° WSW 18:48:31 10° SSE
NOSS 3-4 (C) 4.5 18:38:58 13° WSW 18:44:09 30° WNW 18:49:25 10° N
NOSS 3-4 (A) 4.5 18:39:08 13° WSW 18:44:15 29° WNW 18:49:27 10° N
CZ-4 R/B 2.4 18:41:35 10° NE 18:45:15 43° ESE 18:48:56 10° S
Cosmos 2219 Rocket 4.3 18:41:46 10° S 18:45:19 17° SE 18:48:51 10° ESE
Cosmos 1140 Rocket 3.4 18:41:22 10° NNW 18:46:34 73° WSW 18:51:51 10° SSE
SL-08 R/B 3.8 18:42:32 10° SSE 18:47:23 69° ENE 18:52:14 10° N
Cosmos 2278 4.5 18:41:56 10° SSW 18:47:31 50° SE 18:53:02 10° NE
NOAA 6 4.4 18:44:04 10° N 18:48:58 44° W 18:53:56 10° SSW
Cosmos 407 Rocket 3.7 18:44:00 10° NNW 18:49:17 82° ENE 18:54:42 10° SSE
Meteor 1-27 Rocket 3.9 18:44:17 10° NNW 18:49:57 52° WSW 18:55:34 10° S
Meteor 1-31 Rocket 4.3 18:47:45 10° NW 18:50:26 18° W 18:53:08 10° SW
COSMOS 2406 3.9 18:45:03 10° N 18:50:38 61° ENE 18:56:19 10° SE
Meteor PRIRODA 3.4 18:48:16 10° N 18:51:45 81° WNW 18:55:16 10° SSW
Helios 1A 3.1 18:47:42 10° SSE 18:51:53 81° ENE 18:56:00 10° NNW
Cosmos 1607 4.5 18:47:13 10° WNW 18:52:49 37° SW 18:58:28 10° SSE
Okean O Rocket 3.5 18:52:09 10° ENE 18:55:55 28° ESE 18:59:45 10° S
Genesis I 3.4 18:56:01 10° WNW 18:59:26 41° SW 19:02:51 10° SSE
RESURS DK-1 3.6 18:57:26 10° SSW 19:01:17 36° SE 19:05:06 10° ENE
Cosmos 2251 Rocket 3.5 19:02:51 10° NNW 19:08:11 80° WSW 19:13:32 10° SSE
Cosmos 2026 Rocket 4.4 19:03:08 10° N 19:09:26 72° E 19:15:53 10° SSE
Cosmos 1328 Rocket 3.7 19:05:33 10° N 19:10:02 89° ENE 19:14:35 10° S
CZ-4B R/B 3.7 19:05:48 10° N 19:10:31 47° W 19:15:13 10° SSW
Cosmos 1151 Rocket 3.6 19:10:17 10° NW 19:14:22 37° WSW 19:18:31 10° S
Cosmos 2360 Rocket 3.5 19:09:25 10° SSW 19:14:37 35° SE 19:19:47 10° ENE
CZ-4B R/B 3.7 19:10:15 10° NNE 19:15:53 69° ESE 19:21:30 10° S
